Private Wetterstation Sandau
Wetterdaten: Mittwoch, 01.08.2012
Datum Zeit Temp. A. Feuchte A. Luftdruck Regen Wind Richtung Richtung Taupunkt Windchill
01.08.2012 00:01 16,6 C 68 % 1019,6 hPa 0,0 l/m 3,2 km/h (1 Bft) O-NO 67 10,7 C 16,6 C
01.08.2012 00:06 16,6 C 69 % 1019,6 hPa 0,0 l/m 1,8 km/h (1 Bft) O-NO 67 10,9 C 16,6 C
01.08.2012 00:11 16,6 C 69 % 1019,5 hPa 0,0 l/m 2,5 km/h (1 Bft) O-NO 67 10,9 C 16,6 C
01.08.2012 00:16 16,6 C 69 % 1019,6 hPa 0,0 l/m 0,0 km/h (0 Bft) O-NO 67 10,9 C 16,6 C
01.08.2012 00:21 16,5 C 69 % 1019,6 hPa 0,0 l/m 1,1 km/h (1 Bft) O-NO 67 10,8 C 16,5 C
01.08.2012 00:26 16,5 C 69 % 1019,6 hPa 0,0 l/m 0,0 km/h (0 Bft) SO 135 10,8 C 16,5 C
01.08.2012 00:31 16,5 C 69 % 1019,7 hPa 0,0 l/m 0,0 km/h (0 Bft) O 90 10,8 C 16,5 C
01.08.2012 00:36 16,6 C 69 % 1019,7 hPa 0,0 l/m 0,0 km/h (0 Bft) SO 135 10,9 C 16,6 C
01.08.2012 00:41 16,5 C 69 % 1019,7 hPa 0,0 l/m 1,8 km/h (1 Bft) O 90 10,8 C 16,5 C
01.08.2012 00:46 16,5 C 69 % 1019,6 hPa 0,0 l/m 2,2 km/h (1 Bft) O-SO 112 10,8 C 16,5 C
01.08.2012 00:51 16,5 C 69 % 1019,6 hPa 0,0 l/m 2,2 km/h (1 Bft) SO 135 10,8 C 16,5 C
01.08.2012 00:56 16,5 C 69 % 1019,6 hPa 0,0 l/m 3,2 km/h (1 Bft) O-SO 112 10,8 C 16,5 C
01.08.2012 01:01 16,5 C 70 % 1019,5 hPa 0,0 l/m 1,4 km/h (1 Bft) O 90 11,0 C 16,5 C
01.08.2012 01:06 16,4 C 70 % 1019,4 hPa 0,0 l/m 3,6 km/h (1 Bft) O-SO 112 10,9 C 16,4 C
01.08.2012 01:11 16,3 C 71 % 1019,5 hPa 0,0 l/m 0,0 km/h (0 Bft) O-NO 67 11,0 C 16,3 C
01.08.2012 01:16 16,3 C 71 % 1019,4 hPa 0,0 l/m 0,0 km/h (0 Bft) O-NO 67 11,0 C 16,3 C
01.08.2012 01:21 16,2 C 71 % 1019,4 hPa 0,0 l/m 0,0 km/h (0 Bft) O-NO 67 10,9 C 16,2 C
01.08.2012 01:26 16,1 C 71 % 1019,4 hPa 0,0 l/m 0,0 km/h (0 Bft) O-NO 67 10,8 C 16,1 C
01.08.2012 01:31 16,1 C 72 % 1019,5 hPa 0,0 l/m 0,0 km/h (0 Bft) O-NO 67 11,0 C 16,1 C
01.08.2012 01:36 16,1 C 72 % 1019,6 hPa 0,0 l/m 0,0 km/h (0 Bft) O-NO 67 11,0 C 16,1 C
01.08.2012 01:41 16,1 C 72 % 1019,5 hPa 0,0 l/m 0,0 km/h (0 Bft) O-NO 67 11,0 C 16,1 C
01.08.2012 01:46 16,1 C 72 % 1019,6 hPa 0,0 l/m 0,0 km/h (0 Bft) O-SO 112 11,0 C 16,1 C
01.08.2012 01:51 16,1 C 72 % 1019,5 hPa 0,0 l/m 1,1 km/h (1 Bft) O 90 11,0 C 16,1 C
01.08.2012 01:56 16,1 C 72 % 1019,6 hPa 0,0 l/m 1,8 km/h (1 Bft) O-NO 67 11,0 C 16,1 C
01.08.2012 02:01 16,1 C 72 % 1019,5 hPa 0,0 l/m 3,6 km/h (1 Bft) O-SO 112 11,0 C 16,1 C
01.08.2012 02:06 16,1 C 72 % 1019,5 hPa 0,0 l/m 4,0 km/h (1 Bft) O 90 11,0 C 16,1 C
01.08.2012 02:11 16,1 C 72 % 1019,6 hPa 0,0 l/m 1,4 km/h (1 Bft) SO 135 11,0 C 16,1 C
01.08.2012 02:16 16,1 C 72 % 1019,6 hPa 0,0 l/m 4,0 km/h (1 Bft) O 90 11,0 C 16,1 C
01.08.2012 02:21 16,1 C 72 % 1019,6 hPa 0,0 l/m 0,0 km/h (0 Bft) O 90 11,0 C 16,1 C
01.08.2012 02:26 16,1 C 72 % 1019,6 hPa 0,0 l/m 2,2 km/h (1 Bft) SO 135 11,0 C 16,1 C
01.08.2012 02:31 16,1 C 72 % 1019,6 hPa 0,0 l/m 1,1 km/h (1 Bft) O-SO 112 11,0 C 16,1 C
01.08.2012 02:36 16,1 C 72 % 1019,4 hPa 0,0 l/m 1,8 km/h (1 Bft) NO 45 11,0 C 16,1 C
01.08.2012 02:41 16,0 C 72 % 1019,4 hPa 0,0 l/m 2,2 km/h (1 Bft) SO 135 11,0 C 16,0 C
01.08.2012 02:46 15,9 C 73 % 1019,5 hPa 0,0 l/m 2,5 km/h (1 Bft) O-NO 67 11,1 C 15,9 C
01.08.2012 02:51 15,9 C 73 % 1019,5 hPa 0,0 l/m 2,9 km/h (1 Bft) O-NO 67 11,1 C 15,9 C
01.08.2012 02:56 15,9 C 73 % 1019,5 hPa 0,0 l/m 0,0 km/h (0 Bft) O-NO 67 11,1 C 15,9 C
01.08.2012 03:01 15,9 C 73 % 1019,5 hPa 0,0 l/m 0,0 km/h (0 Bft) O-NO 67 11,1 C 15,9 C
01.08.2012 03:06 15,9 C 73 % 1019,5 hPa 0,0 l/m 2,2 km/h (1 Bft) O-NO 67 11,1 C 15,9 C
01.08.2012 03:11 15,9 C 73 % 1019,4 hPa 0,0 l/m 3,2 km/h (1 Bft) O-NO 67 11,1 C 15,9 C
01.08.2012 03:16 15,9 C 73 % 1019,5 hPa 0,0 l/m 2,5 km/h (1 Bft) O-NO 67 11,1 C 15,9 C
01.08.2012 03:21 15,8 C 73 % 1019,4 hPa 0,0 l/m 2,9 km/h (1 Bft) O-NO 67 11,0 C 15,8 C
01.08.2012 03:26 15,8 C 73 % 1019,4 hPa 0,0 l/m 2,5 km/h (1 Bft) O-SO 112 11,0 C 15,8 C
01.08.2012 03:31 15,8 C 74 % 1019,3 hPa 0,0 l/m 6,1 km/h (2 Bft) O 90 11,2 C 15,8 C
01.08.2012 03:36 15,7 C 74 % 1019,3 hPa 0,0 l/m 6,1 km/h (2 Bft) SO 135 11,1 C 15,7 C
01.08.2012 03:41 15,7 C 74 % 1019,3 hPa 0,0 l/m 0,0 km/h (0 Bft) SO 135 11,1 C 15,7 C
01.08.2012 03:46 15,8 C 74 % 1019,2 hPa 0,0 l/m 2,5 km/h (1 Bft) O-NO 67 11,2 C 15,8 C
01.08.2012 03:51 15,8 C 73 % 1019,2 hPa 0,0 l/m 5,8 km/h (2 Bft) O-SO 112 11,0 C 15,8 C
01.08.2012 03:56 15,8 C 73 % 1019,2 hPa 0,0 l/m 4,0 km/h (1 Bft) O-NO 67 11,0 C 15,8 C
01.08.2012 04:01 15,8 C 73 % 1019,3 hPa 0,0 l/m 2,2 km/h (1 Bft) O-NO 67 11,0 C 15,8 C
01.08.2012 04:06 15,7 C 74 % 1019,3 hPa 0,0 l/m 6,8 km/h (2 Bft) O-SO 112 11,1 C 15,7 C
01.08.2012 04:11 15,7 C 73 % 1019,2 hPa 0,0 l/m 6,8 km/h (2 Bft) O-SO 112 10,9 C 15,7 C
01.08.2012 04:16 15,6 C 74 % 1019,2 hPa 0,0 l/m 4,0 km/h (1 Bft) O-SO 112 11,0 C 15,6 C
01.08.2012 04:21 15,6 C 74 % 1019,3 hPa 0,0 l/m 6,1 km/h (2 Bft) O 90 11,0 C 15,6 C
01.08.2012 04:26 15,6 C 74 % 1019,2 hPa 0,0 l/m 3,2 km/h (1 Bft) O 90 11,0 C 15,6 C
01.08.2012 04:31 15,5 C 74 % 1019,2 hPa 0,0 l/m 3,2 km/h (1 Bft) O 90 10,9 C 15,5 C
01.08.2012 04:36 15,4 C 75 % 1019,1 hPa 0,0 l/m 4,0 km/h (1 Bft) O 90 11,0 C 15,4 C
01.08.2012 04:41 15,3 C 75 % 1019,2 hPa 0,0 l/m 0,0 km/h (0 Bft) O-NO 67 10,9 C 15,3 C
01.08.2012 04:46 15,2 C 75 % 1019,2 hPa 0,0 l/m 1,8 km/h (1 Bft) O-SO 112 10,8 C 15,2 C
01.08.2012 04:51 15,0 C 75 % 1019,1 hPa 0,0 l/m 4,7 km/h (1 Bft) O 90 10,6 C 15,0 C
01.08.2012 04:56 14,9 C 76 % 1019,2 hPa 0,0 l/m 4,0 km/h (1 Bft) O-NO 67 10,7 C 14,9 C
01.08.2012 05:01 14,9 C 76 % 1019,1 hPa 0,0 l/m 6,1 km/h (2 Bft) O 90 10,7 C 14,9 C
01.08.2012 05:06 14,9 C 76 % 1019,1 hPa 0,0 l/m 2,5 km/h (1 Bft) O-NO 67 10,7 C 14,9 C
01.08.2012 05:11 14,9 C 76 % 1019,1 hPa 0,0 l/m 1,8 km/h (1 Bft) O 90 10,7 C 14,9 C
01.08.2012 05:16 14,9 C 76 % 1019,1 hPa 0,0 l/m 0,0 km/h (0 Bft) O 90 10,7 C 14,9 C
01.08.2012 05:21 14,9 C 77 % 1019,1 hPa 0,0 l/m 2,2 km/h (1 Bft) SO 135 10,9 C 14,9 C
01.08.2012 05:26 14,9 C 77 % 1019,2 hPa 0,0 l/m 2,2 km/h (1 Bft) O-NO 67 10,9 C 14,9 C
01.08.2012 05:31 14,9 C 77 % 1019,1 hPa 0,0 l/m 4,7 km/h (1 Bft) O-SO 112 10,9 C 14,9 C
01.08.2012 05:36 14,9 C 77 % 1019,1 hPa 0,0 l/m 2,5 km/h (1 Bft) SO 135 10,9 C 14,9 C
01.08.2012 05:41 14,9 C 77 % 1019,1 hPa 0,0 l/m 0,0 km/h (0 Bft) O-SO 112 10,9 C 14,9 C
01.08.2012 05:46 14,9 C 77 % 1019,2 hPa 0,0 l/m 2,5 km/h (1 Bft) O-SO 112 10,9 C 14,9 C
01.08.2012 05:51 14,9 C 77 % 1019,2 hPa 0,0 l/m 4,3 km/h (1 Bft) SO 135 10,9 C 14,9 C
01.08.2012 05:56 14,9 C 77 % 1019,2 hPa 0,0 l/m 2,2 km/h (1 Bft) O 90 10,9 C 14,9 C
01.08.2012 06:01 14,9 C 77 % 1019,2 hPa 0,0 l/m 2,5 km/h (1 Bft) SO 135 10,9 C 14,9 C
01.08.2012 06:06 14,9 C 77 % 1019,3 hPa 0,0 l/m 4,0 km/h (1 Bft) SO 135 10,9 C 14,9 C
01.08.2012 06:11 14,9 C 77 % 1019,2 hPa 0,0 l/m 4,7 km/h (1 Bft) SO 135 10,9 C 14,9 C
01.08.2012 06:16 14,9 C 77 % 1019,2 hPa 0,0 l/m 4,0 km/h (1 Bft) SO 135 10,9 C 14,9 C
01.08.2012 06:21 14,9 C 78 % 1019,3 hPa 0,0 l/m 3,2 km/h (1 Bft) SO 135 11,1 C 14,9 C
01.08.2012 06:26 14,9 C 78 % 1019,3 hPa 0,0 l/m 2,9 km/h (1 Bft) SO 135 11,1 C 14,9 C
01.08.2012 06:31 14,9 C 78 % 1019,1 hPa 0,0 l/m 5,4 km/h (1 Bft) SO 135 11,1 C 14,9 C
01.08.2012 06:36 14,9 C 78 % 1019,2 hPa 0,0 l/m 2,5 km/h (1 Bft) SO 135 11,1 C 14,9 C
01.08.2012 06:41 14,9 C 78 % 1019,2 hPa 0,0 l/m 0,0 km/h (0 Bft) O 90 11,1 C 14,9 C
01.08.2012 06:46 15,0 C 78 % 1019,2 hPa 0,0 l/m 4,7 km/h (1 Bft) SO 135 11,2 C 15,0 C
01.08.2012 06:51 15,2 C 78 % 1019,2 hPa 0,0 l/m 0,0 km/h (0 Bft) O-NO 67 11,4 C 15,2 C
01.08.2012 06:56 15,3 C 77 % 1019,3 hPa 0,0 l/m 0,0 km/h (0 Bft) O-SO 112 11,3 C 15,3 C
01.08.2012 07:01 15,3 C 77 % 1019,2 hPa 0,0 l/m 4,7 km/h (1 Bft) O-SO 112 11,3 C 15,3 C
01.08.2012 07:06 15,5 C 77 % 1019,3 hPa 0,0 l/m 2,5 km/h (1 Bft) O-SO 112 11,5 C 15,5 C
01.08.2012 07:11 15,8 C 76 % 1019,3 hPa 0,0 l/m 2,5 km/h (1 Bft) O-SO 112 11,6 C 15,8 C
01.08.2012 07:16 15,9 C 76 % 1019,3 hPa 0,0 l/m 5,0 km/h (1 Bft) O-SO 112 11,7 C 15,9 C
01.08.2012 07:21 15,9 C 75 % 1019,3 hPa 0,0 l/m 6,1 km/h (2 Bft) O-SO 112 11,5 C 15,9 C
01.08.2012 07:26 16,1 C 75 % 1019,3 hPa 0,0 l/m 5,0 km/h (1 Bft) O-SO 112 11,7 C 16,1 C
01.08.2012 07:31 16,1 C 74 % 1019,4 hPa 0,0 l/m 6,5 km/h (2 Bft) O-SO 112 11,5 C 16,1 C
01.08.2012 07:36 16,2 C 74 % 1019,3 hPa 0,0 l/m 5,8 km/h (2 Bft) O-SO 112 11,6 C 16,2 C
01.08.2012 07:41 16,2 C 74 % 1019,3 hPa 0,0 l/m 5,0 km/h (1 Bft) O-SO 112 11,6 C 16,2 C
01.08.2012 07:46 16,2 C 74 % 1019,3 hPa 0,0 l/m 6,5 km/h (2 Bft) SO 135 11,6 C 16,2 C
01.08.2012 07:51 16,3 C 74 % 1019,3 hPa 0,0 l/m 2,5 km/h (1 Bft) O 90 11,7 C 16,3 C
01.08.2012 07:56 16,3 C 74 % 1019,3 hPa 0,0 l/m 5,8 km/h (2 Bft) O-NO 67 11,7 C 16,3 C
01.08.2012 08:01 16,4 C 73 % 1019,3 hPa 0,0 l/m 4,0 km/h (1 Bft) SO 135 11,5 C 16,4 C
01.08.2012 08:06 16,5 C 73 % 1019,3 hPa 0,0 l/m 3,2 km/h (1 Bft) O-SO 112 11,6 C 16,5 C
01.08.2012 08:11 16,6 C 72 % 1019,2 hPa 0,0 l/m 10,1 km/h (2 Bft) S-SO 157 11,5 C 16,6 C
01.08.2012 08:16 16,8 C 72 % 1019,1 hPa 0,0 l/m 1,4 km/h (1 Bft) SO 135 11,7 C 16,8 C
01.08.2012 08:21 16,9 C 72 % 1019,2 hPa 0,0 l/m 7,6 km/h (2 Bft) S-SO 157 11,8 C 16,9 C
01.08.2012 08:26 17,2 C 72 % 1019,3 hPa 0,0 l/m 9,4 km/h (2 Bft) S-SO 157 12,1 C 17,2 C
01.08.2012 08:31 17,4 C 71 % 1019,3 hPa 0,0 l/m 4,7 km/h (1 Bft) S-SO 157 12,1 C 17,4 C
01.08.2012 08:36 17,6 C 71 % 1019,3 hPa 0,0 l/m 12,6 km/h (3 Bft) SO 135 12,3 C 17,6 C
01.08.2012 08:41 17,9 C 70 % 1019,3 hPa 0,0 l/m 4,0 km/h (1 Bft) S-SO 157 12,3 C 17,9 C
01.08.2012 08:46 18,4 C 68 % 1019,3 hPa 0,0 l/m 3,2 km/h (1 Bft) O-NO 67 12,4 C 18,4 C
01.08.2012 08:51 18,7 C 67 % 1019,4 hPa 0,0 l/m 2,9 km/h (1 Bft) O 90 12,4 C 18,7 C
01.08.2012 08:56 18,9 C 67 % 1019,4 hPa 0,0 l/m 9,4 km/h (2 Bft) S-SO 157 12,6 C 18,9 C
01.08.2012 09:01 19,3 C 66 % 1019,4 hPa 0,0 l/m 4,0 km/h (1 Bft) SO 135 12,8 C 19,3 C
01.08.2012 09:06 19,5 C 65 % 1019,3 hPa 0,0 l/m 5,8 km/h (2 Bft) SO 135 12,7 C 19,5 C
01.08.2012 09:11 19,8 C 63 % 1019,2 hPa 0,0 l/m 7,6 km/h (2 Bft) SO 135 12,5 C 19,8 C
01.08.2012 09:16 19,8 C 63 % 1019,2 hPa 0,0 l/m 9,4 km/h (2 Bft) SO 135 12,5 C 19,8 C
01.08.2012 09:21 19,9 C 63 % 1019,2 hPa 0,0 l/m 9,0 km/h (2 Bft) S-SO 157 12,6 C 19,9 C
01.08.2012 09:26 20,1 C 63 % 1019,2 hPa 0,0 l/m 7,2 km/h (2 Bft) O 90 12,8 C 20,1 C
01.08.2012 09:31 20,4 C 61 % 1019,2 hPa 0,0 l/m 8,3 km/h (2 Bft) SO 135 12,6 C 20,4 C
01.08.2012 09:36 20,4 C 60 % 1019,1 hPa 0,0 l/m 4,7 km/h (1 Bft) S-SO 157 12,4 C 20,4 C
01.08.2012 09:41 20,5 C 61 % 1019,1 hPa 0,0 l/m 7,2 km/h (2 Bft) S-SW 202 12,7 C 20,5 C
01.08.2012 09:46 20,8 C 61 % 1019,1 hPa 0,0 l/m 7,2 km/h (2 Bft) SO 135 13,0 C 20,8 C
01.08.2012 09:51 20,9 C 60 % 1019,1 hPa 0,0 l/m 6,1 km/h (2 Bft) S-SO 157 12,8 C 20,9 C
01.08.2012 09:56 21,0 C 60 % 1019,1 hPa 0,0 l/m 0,0 km/h (0 Bft) SO 135 12,9 C 21,0 C
01.08.2012 10:01 20,9 C 59 % 1018,9 hPa 0,0 l/m 5,0 km/h (1 Bft) SO 135 12,6 C 20,9 C
01.08.2012 10:06 20,8 C 60 % 1018,9 hPa 0,0 l/m 1,8 km/h (1 Bft) O-SO 112 12,7 C 20,8 C
01.08.2012 10:11 20,9 C 60 % 1018,9 hPa 0,0 l/m 5,8 km/h (2 Bft) O-NO 67 12,8 C 20,9 C
01.08.2012 10:16 21,0 C 60 % 1018,8 hPa 0,0 l/m 7,2 km/h (2 Bft) SO 135 12,9 C 21,0 C
01.08.2012 10:21 21,2 C 60 % 1018,7 hPa 0,0 l/m 2,2 km/h (1 Bft) N-NO 22 13,1 C 21,2 C
01.08.2012 10:26 21,4 C 59 % 1018,8 hPa 0,0 l/m 3,2 km/h (1 Bft) NO 45 13,0 C 21,4 C
01.08.2012 10:31 21,3 C 59 % 1018,8 hPa 0,0 l/m 4,0 km/h (1 Bft) O 90 13,0 C 21,3 C
01.08.2012 10:36 21,4 C 59 % 1018,7 hPa 0,0 l/m 3,2 km/h (1 Bft) S-SO 157 13,0 C 21,4 C
01.08.2012 10:41 21,7 C 59 % 1018,7 hPa 0,0 l/m 2,5 km/h (1 Bft) SO 135 13,3 C 21,7 C
01.08.2012 10:46 22,1 C 59 % 1018,7 hPa 0,0 l/m 8,3 km/h (2 Bft) S 180 13,7 C 22,1 C
01.08.2012 10:51 22,4 C 56 % 1018,7 hPa 0,0 l/m 0,0 km/h (0 Bft) SO 135 13,2 C 22,4 C
01.08.2012 10:56 22,7 C 56 % 1018,7 hPa 0,0 l/m 3,2 km/h (1 Bft) SO 135 13,5 C 22,7 C
01.08.2012 11:01 23,1 C 54 % 1018,8 hPa 0,0 l/m 4,0 km/h (1 Bft) S 180 13,3 C 23,1 C
01.08.2012 11:06 23,4 C 53 % 1018,7 hPa 0,0 l/m 0,0 km/h (0 Bft) S-SO 157 13,3 C 23,4 C
01.08.2012 11:11 23,6 C 52 % 1018,7 hPa 0,0 l/m 2,5 km/h (1 Bft) S 180 13,2 C 23,6 C
01.08.2012 11:16 23,9 C 50 % 1018,7 hPa 0,0 l/m 11,5 km/h (2 Bft) W-SW 247 12,8 C 23,9 C
01.08.2012 11:21 24,1 C 50 % 1018,7 hPa 0,0 l/m 4,3 km/h (1 Bft) S-SW 202 13,0 C 24,1 C
01.08.2012 11:26 24,1 C 49 % 1018,6 hPa 0,0 l/m 5,4 km/h (1 Bft) SO 135 12,7 C 24,1 C
01.08.2012 11:31 24,4 C 49 % 1018,6 hPa 0,0 l/m 5,4 km/h (1 Bft) SW 225 13,0 C 24,4 C
01.08.2012 11:36 24,7 C 49 % 1018,5 hPa 0,0 l/m 2,2 km/h (1 Bft) S-SO 157 13,3 C 24,7 C
01.08.2012 11:41 25,1 C 47 % 1018,5 hPa 0,0 l/m 3,2 km/h (1 Bft) S 180 13,0 C 25,1 C
01.08.2012 11:46 25,3 C 47 % 1018,5 hPa 0,0 l/m 3,2 km/h (1 Bft) S-SO 157 13,2 C 25,3 C
01.08.2012 11:51 25,4 C 47 % 1018,5 hPa 0,0 l/m 3,2 km/h (1 Bft) SO 135 13,3 C 25,4 C
01.08.2012 11:56 25,6 C 46 % 1018,5 hPa 0,0 l/m 5,8 km/h (2 Bft) S-SW 202 13,1 C 25,6 C
01.08.2012 12:01 25,8 C 45 % 1018,5 hPa 0,0 l/m 0,0 km/h (0 Bft) S-SO 157 13,0 C 25,8 C
01.08.2012 12:06 25,8 C 45 % 1018,3 hPa 0,0 l/m 7,2 km/h (2 Bft) S-SW 202 13,0 C 25,8 C
01.08.2012 12:11 25,9 C 46 % 1018,4 hPa 0,0 l/m 0,0 km/h (0 Bft) S-SO 157 13,4 C 25,9 C
01.08.2012 12:16 25,9 C 45 % 1018,3 hPa 0,0 l/m 0,0 km/h (0 Bft) S-SW 202 13,0 C 25,9 C
01.08.2012 12:21 26,0 C 44 % 1018,4 hPa 0,0 l/m 6,8 km/h (2 Bft) W 270 12,8 C 26,0 C
01.08.2012 12:26 25,9 C 44 % 1018,4 hPa 0,0 l/m 0,0 km/h (0 Bft) S 180 12,7 C 25,9 C
01.08.2012 12:31 26,0 C 44 % 1018,2 hPa 0,0 l/m 2,9 km/h (1 Bft) SW 225 12,8 C 26,0 C
01.08.2012 12:36 25,9 C 44 % 1018,3 hPa 0,0 l/m 0,0 km/h (0 Bft) S-SO 157 12,7 C 25,9 C
01.08.2012 12:41 25,9 C 44 % 1018,3 hPa 0,0 l/m 1,8 km/h (1 Bft) N 360 12,7 C 25,9 C
01.08.2012 12:46 25,9 C 45 % 1018,2 hPa 0,0 l/m 1,8 km/h (1 Bft) W-SW 247 13,0 C 25,9 C
01.08.2012 12:51 26,4 C 45 % 1018,3 hPa 0,0 l/m 4,7 km/h (1 Bft) S-SW 202 13,5 C 26,4 C
01.08.2012 12:56 26,6 C 43 % 1018,3 hPa 0,0 l/m 4,0 km/h (1 Bft) N-NW 337 13,0 C 26,6 C
01.08.2012 13:01 26,4 C 43 % 1018,2 hPa 0,0 l/m 3,2 km/h (1 Bft) NW 315 12,8 C 26,4 C
01.08.2012 13:06 26,5 C 44 % 1018,2 hPa 0,0 l/m 9,0 km/h (2 Bft) SW 225 13,2 C 26,5 C
01.08.2012 13:11 26,8 C 45 % 1018,2 hPa 0,0 l/m 5,8 km/h (2 Bft) W 270 13,9 C 26,8 C
01.08.2012 13:16 26,9 C 42 % 1018,0 hPa 0,0 l/m 0,0 km/h (0 Bft) N-NO 22 12,9 C 26,9 C
01.08.2012 13:21 26,9 C 43 % 1017,9 hPa 0,0 l/m 3,6 km/h (1 Bft) S-SW 202 13,2 C 26,9 C
01.08.2012 13:26 27,2 C 42 % 1017,9 hPa 0,0 l/m 2,5 km/h (1 Bft) N-NW 337 13,2 C 27,2 C
01.08.2012 13:31 27,3 C 41 % 1017,8 hPa 0,0 l/m 2,2 km/h (1 Bft) O-NO 67 12,9 C 27,3 C
01.08.2012 13:36 27,3 C 42 % 1017,8 hPa 0,0 l/m 4,0 km/h (1 Bft) S 180 13,2 C 27,3 C
01.08.2012 13:41 27,6 C 42 % 1017,8 hPa 0,0 l/m 7,2 km/h (2 Bft) W-SW 247 13,5 C 27,6 C
01.08.2012 13:46 28,1 C 41 % 1017,7 hPa 0,0 l/m 0,0 km/h (0 Bft) S-SW 202 13,6 C 28,1 C
01.08.2012 13:51 28,1 C 41 % 1017,7 hPa 0,0 l/m 1,8 km/h (1 Bft) SW 225 13,6 C 28,1 C
01.08.2012 13:56 28,1 C 41 % 1017,8 hPa 0,0 l/m 2,9 km/h (1 Bft) S 180 13,6 C 28,1 C
01.08.2012 14:01 28,4 C 40 % 1017,8 hPa 0,0 l/m 5,0 km/h (1 Bft) S-SO 157 13,5 C 28,4 C
01.08.2012 14:06 28,6 C 40 % 1017,8 hPa 0,0 l/m 14,4 km/h (3 Bft) S-SW 202 13,7 C 28,6 C
01.08.2012 14:11 28,8 C 40 % 1017,8 hPa 0,0 l/m 4,7 km/h (1 Bft) SW 225 13,8 C 28,8 C
01.08.2012 14:16 28,6 C 40 % 1017,7 hPa 0,0 l/m 4,7 km/h (1 Bft) S 180 13,7 C 28,6 C
01.08.2012 14:21 28,3 C 39 % 1017,6 hPa 0,0 l/m 10,1 km/h (2 Bft) SO 135 13,0 C 28,3 C
01.08.2012 14:26 27,9 C 41 % 1017,6 hPa 0,0 l/m 3,6 km/h (1 Bft) S-SW 202 13,4 C 27,9 C
01.08.2012 14:31 27,7 C 41 % 1017,5 hPa 0,0 l/m 6,5 km/h (2 Bft) SW 225 13,2 C 27,7 C
01.08.2012 14:36 27,6 C 42 % 1017,5 hPa 0,0 l/m 10,1 km/h (2 Bft) S-SO 157 13,5 C 27,6 C
01.08.2012 14:41 27,8 C 41 % 1017,4 hPa 0,0 l/m 6,8 km/h (2 Bft) SO 135 13,3 C 27,8 C
01.08.2012 14:46 27,8 C 41 % 1017,4 hPa 0,0 l/m 6,5 km/h (2 Bft) SO 135 13,3 C 27,8 C
01.08.2012 14:51 28,0 C 41 % 1017,4 hPa 0,0 l/m 7,6 km/h (2 Bft) S-SO 157 13,5 C 28,0 C
01.08.2012 14:56 28,1 C 40 % 1017,2 hPa 0,0 l/m 5,4 km/h (1 Bft) O-SO 112 13,2 C 28,1 C
01.08.2012 15:01 28,0 C 41 % 1017,2 hPa 0,0 l/m 2,9 km/h (1 Bft) S-SO 157 13,5 C 28,0 C
01.08.2012 15:06 28,2 C 41 % 1017,1 hPa 0,0 l/m 8,3 km/h (2 Bft) SO 135 13,7 C 28,2 C
01.08.2012 15:11 28,5 C 40 % 1017,0 hPa 0,0 l/m 6,8 km/h (2 Bft) O-NO 67 13,6 C 28,5 C
01.08.2012 15:16 28,8 C 40 % 1017,0 hPa 0,0 l/m 4,3 km/h (1 Bft) S-SO 157 13,8 C 28,8 C
01.08.2012 15:21 28,9 C 40 % 1016,9 hPa 0,0 l/m 4,0 km/h (1 Bft) SW 225 13,9 C 28,9 C
01.08.2012 15:26 29,1 C 39 % 1016,9 hPa 0,0 l/m 2,9 km/h (1 Bft) O 90 13,7 C 29,1 C
01.08.2012 15:31 28,8 C 40 % 1017,0 hPa 0,0 l/m 7,2 km/h (2 Bft) S-SO 157 13,8 C 28,8 C
01.08.2012 15:36 28,8 C 39 % 1016,9 hPa 0,0 l/m 9,4 km/h (2 Bft) SO 135 13,4 C 28,8 C
01.08.2012 15:41 28,9 C 39 % 1016,9 hPa 0,0 l/m 10,1 km/h (2 Bft) S-SO 157 13,5 C 28,9 C
01.08.2012 15:46 29,1 C 39 % 1016,8 hPa 0,0 l/m 6,5 km/h (2 Bft) S-SW 202 13,7 C 29,1 C
01.08.2012 15:51 29,2 C 38 % 1016,9 hPa 0,0 l/m 13,0 km/h (3 Bft) SO 135 13,4 C 29,2 C
01.08.2012 15:56 28,9 C 38 % 1016,8 hPa 0,0 l/m 4,7 km/h (1 Bft) S-SO 157 13,1 C 28,9 C
01.08.2012 16:01 28,6 C 38 % 1016,7 hPa 0,0 l/m 4,0 km/h (1 Bft) SW 225 12,9 C 28,6 C
01.08.2012 16:06 28,8 C 39 % 1016,7 hPa 0,0 l/m 0,0 km/h (0 Bft) NW 315 13,4 C 28,8 C
01.08.2012 16:11 29,1 C 38 % 1016,6 hPa 0,0 l/m 5,0 km/h (1 Bft) SO 135 13,3 C 29,1 C
01.08.2012 16:16 29,3 C 38 % 1016,7 hPa 0,0 l/m 8,3 km/h (2 Bft) SW 225 13,5 C 29,3 C
01.08.2012 16:21 29,4 C 38 % 1016,6 hPa 0,0 l/m 5,8 km/h (2 Bft) S 180 13,6 C 29,4 C
01.08.2012 16:26 29,6 C 38 % 1016,7 hPa 0,0 l/m 6,1 km/h (2 Bft) SW 225 13,8 C 29,6 C
01.08.2012 16:31 29,7 C 37 % 1016,5 hPa 0,0 l/m 3,2 km/h (1 Bft) O 90 13,4 C 29,7 C
01.08.2012 16:36 29,5 C 38 % 1016,4 hPa 0,0 l/m 2,2 km/h (1 Bft) S 180 13,7 C 29,5 C
01.08.2012 16:41 29,6 C 38 % 1016,3 hPa 0,0 l/m 14,8 km/h (3 Bft) SW 225 13,8 C 29,6 C
01.08.2012 16:46 29,3 C 37 % 1016,3 hPa 0,0 l/m 10,8 km/h (2 Bft) SO 135 13,1 C 29,3 C
01.08.2012 16:51 28,8 C 38 % 1016,1 hPa 0,0 l/m 10,4 km/h (2 Bft) O 90 13,0 C 28,8 C
01.08.2012 16:56 28,3 C 39 % 1016,2 hPa 0,0 l/m 6,5 km/h (2 Bft) S-SO 157 13,0 C 28,3 C
01.08.2012 17:01 28,1 C 39 % 1016,1 hPa 0,0 l/m 5,4 km/h (1 Bft) O 90 12,8 C 28,1 C
01.08.2012 17:06 28,1 C 39 % 1016,1 hPa 0,0 l/m 4,3 km/h (1 Bft) S-SW 202 12,8 C 28,1 C
01.08.2012 17:11 28,1 C 39 % 1016,1 hPa 0,0 l/m 5,8 km/h (2 Bft) S-SO 157 12,8 C 28,1 C
01.08.2012 17:16 28,1 C 39 % 1016,1 hPa 0,0 l/m 4,7 km/h (1 Bft) SO 135 12,8 C 28,1 C
01.08.2012 17:21 27,9 C 39 % 1016,0 hPa 0,0 l/m 12,2 km/h (2 Bft) O 90 12,6 C 27,9 C
01.08.2012 17:26 27,9 C 40 % 1015,9 hPa 0,0 l/m 7,9 km/h (2 Bft) SW 225 13,0 C 27,9 C
01.08.2012 17:31 28,3 C 39 % 1015,9 hPa 0,0 l/m 0,0 km/h (0 Bft) S-SO 157 13,0 C 28,3 C
01.08.2012 17:36 28,6 C 39 % 1015,8 hPa 0,0 l/m 9,4 km/h (2 Bft) S-SO 157 13,3 C 28,6 C
01.08.2012 17:41 28,7 C 38 % 1015,7 hPa 0,0 l/m 5,0 km/h (1 Bft) NO 45 13,0 C 28,7 C
01.08.2012 17:46 28,4 C 39 % 1015,8 hPa 0,0 l/m 3,6 km/h (1 Bft) O-NO 67 13,1 C 28,4 C
01.08.2012 17:51 28,0 C 40 % 1015,7 hPa 0,0 l/m 9,0 km/h (2 Bft) O-SO 112 13,1 C 28,0 C
01.08.2012 17:56 27,5 C 40 % 1015,7 hPa 0,0 l/m 5,0 km/h (1 Bft) O-NO 67 12,7 C 27,5 C
01.08.2012 18:01 27,5 C 40 % 1015,5 hPa 0,0 l/m 6,8 km/h (2 Bft) O-SO 112 12,7 C 27,5 C
01.08.2012 18:06 27,4 C 40 % 1015,4 hPa 0,0 l/m 4,0 km/h (1 Bft) S 180 12,6 C 27,4 C
01.08.2012 18:11 27,5 C 41 % 1015,2 hPa 0,0 l/m 4,7 km/h (1 Bft) N-NO 22 13,1 C 27,5 C
01.08.2012 18:16 27,6 C 41 % 1015,3 hPa 0,0 l/m 12,6 km/h (3 Bft) SO 135 13,1 C 27,6 C
01.08.2012 18:21 27,6 C 41 % 1015,2 hPa 0,0 l/m 6,1 km/h (2 Bft) S-SO 157 13,1 C 27,6 C
01.08.2012 18:26 27,5 C 41 % 1015,2 hPa 0,0 l/m 6,8 km/h (2 Bft) SO 135 13,1 C 27,5 C
01.08.2012 18:31 27,5 C 41 % 1015,1 hPa 0,0 l/m 6,1 km/h (2 Bft) O-NO 67 13,1 C 27,5 C
01.08.2012 18:36 27,3 C 41 % 1015,1 hPa 0,0 l/m 5,0 km/h (1 Bft) O-NO 67 12,9 C 27,3 C
01.08.2012 18:41 27,2 C 42 % 1015,2 hPa 0,0 l/m 10,1 km/h (2 Bft) SO 135 13,2 C 27,2 C
01.08.2012 18:46 27,2 C 41 % 1015,1 hPa 0,0 l/m 7,2 km/h (2 Bft) S-SO 157 12,8 C 27,2 C
01.08.2012 18:51 27,3 C 41 % 1014,9 hPa 0,0 l/m 3,6 km/h (1 Bft) O 90 12,9 C 27,3 C
01.08.2012 18:56 27,3 C 41 % 1014,9 hPa 0,0 l/m 11,2 km/h (2 Bft) SO 135 12,9 C 27,3 C
01.08.2012 19:01 27,3 C 42 % 1014,9 hPa 0,0 l/m 7,6 km/h (2 Bft) SO 135 13,2 C 27,3 C
01.08.2012 19:06 27,1 C 41 % 1014,9 hPa 0,0 l/m 14,4 km/h (3 Bft) O-SO 112 12,7 C 27,1 C
01.08.2012 19:11 26,9 C 42 % 1014,8 hPa 0,0 l/m 13,0 km/h (3 Bft) SO 135 12,9 C 26,9 C
01.08.2012 19:16 26,8 C 42 % 1014,9 hPa 0,0 l/m 6,1 km/h (2 Bft) SO 135 12,8 C 26,8 C
01.08.2012 19:21 26,7 C 43 % 1014,8 hPa 0,0 l/m 7,6 km/h (2 Bft) SO 135 13,1 C 26,7 C
01.08.2012 19:26 26,6 C 43 % 1014,8 hPa 0,0 l/m 3,2 km/h (1 Bft) SO 135 13,0 C 26,6 C
01.08.2012 19:31 26,5 C 43 % 1014,9 hPa 0,0 l/m 8,3 km/h (2 Bft) S-SO 157 12,9 C 26,5 C
01.08.2012 19:36 26,4 C 44 % 1014,9 hPa 0,0 l/m 6,1 km/h (2 Bft) SO 135 13,1 C 26,4 C
01.08.2012 19:41 26,4 C 44 % 1014,8 hPa 0,0 l/m 4,0 km/h (1 Bft) O-SO 112 13,1 C 26,4 C
01.08.2012 19:46 26,2 C 44 % 1014,9 hPa 0,0 l/m 7,2 km/h (2 Bft) SO 135 13,0 C 26,2 C
01.08.2012 19:51 26,1 C 45 % 1015,0 hPa 0,0 l/m 5,0 km/h (1 Bft) SO 135 13,2 C 26,1 C
01.08.2012 19:56 25,9 C 46 % 1014,9 hPa 0,0 l/m 4,0 km/h (1 Bft) O 90 13,4 C 25,9 C
01.08.2012 20:01 25,6 C 46 % 1014,9 hPa 0,0 l/m 7,9 km/h (2 Bft) O 90 13,1 C 25,6 C
01.08.2012 20:06 25,5 C 47 % 1014,9 hPa 0,0 l/m 2,5 km/h (1 Bft) SO 135 13,3 C 25,5 C
01.08.2012 20:11 25,3 C 47 % 1014,8 hPa 0,0 l/m 6,8 km/h (2 Bft) O-SO 112 13,2 C 25,3 C
01.08.2012 20:16 25,1 C 48 % 1014,8 hPa 0,0 l/m 4,3 km/h (1 Bft) SO 135 13,3 C 25,1 C
01.08.2012 20:21 24,8 C 48 % 1014,8 hPa 0,0 l/m 3,2 km/h (1 Bft) O-NO 67 13,0 C 24,8 C
01.08.2012 20:26 24,5 C 49 % 1014,8 hPa 0,0 l/m 1,4 km/h (1 Bft) O-NO 67 13,1 C 24,5 C
01.08.2012 20:31 24,3 C 50 % 1014,8 hPa 0,0 l/m 7,9 km/h (2 Bft) SO 135 13,2 C 24,3 C
01.08.2012 20:36 23,9 C 51 % 1014,8 hPa 0,0 l/m 4,7 km/h (1 Bft) O-NO 67 13,1 C 23,9 C
01.08.2012 20:41 23,7 C 52 % 1014,8 hPa 0,0 l/m 5,8 km/h (2 Bft) O-NO 67 13,2 C 23,7 C
01.08.2012 20:46 23,5 C 52 % 1014,7 hPa 0,0 l/m 5,0 km/h (1 Bft) SO 135 13,1 C 23,5 C
01.08.2012 20:51 23,3 C 53 % 1014,8 hPa 0,0 l/m 4,0 km/h (1 Bft) SO 135 13,2 C 23,3 C
01.08.2012 20:56 23,1 C 53 % 1014,8 hPa 0,0 l/m 3,2 km/h (1 Bft) SO 135 13,0 C 23,1 C
01.08.2012 21:01 22,9 C 54 % 1014,8 hPa 0,0 l/m 6,5 km/h (2 Bft) O-SO 112 13,1 C 22,9 C
01.08.2012 21:06 22,8 C 54 % 1014,9 hPa 0,0 l/m 7,9 km/h (2 Bft) O-SO 112 13,0 C 22,8 C
01.08.2012 21:11 22,6 C 54 % 1014,9 hPa 0,0 l/m 6,1 km/h (2 Bft) SO 135 12,8 C 22,6 C
01.08.2012 21:16 22,6 C 54 % 1014,9 hPa 0,0 l/m 4,0 km/h (1 Bft) SO 135 12,8 C 22,6 C
01.08.2012 21:21 22,4 C 54 % 1015,0 hPa 0,0 l/m 4,0 km/h (1 Bft) O-SO 112 12,6 C 22,4 C
01.08.2012 21:26 22,4 C 54 % 1015,0 hPa 0,0 l/m 5,4 km/h (1 Bft) O-SO 112 12,6 C 22,4 C
01.08.2012 21:31 22,3 C 55 % 1014,9 hPa 0,0 l/m 2,5 km/h (1 Bft) O-NO 67 12,8 C 22,3 C
01.08.2012 21:36 22,1 C 55 % 1015,0 hPa 0,0 l/m 2,9 km/h (1 Bft) SO 135 12,6 C 22,1 C
01.08.2012 21:41 21,9 C 55 % 1015,0 hPa 0,0 l/m 1,4 km/h (1 Bft) SO 135 12,4 C 21,9 C
01.08.2012 21:46 21,9 C 56 % 1015,1 hPa 0,0 l/m 3,2 km/h (1 Bft) O-NO 67 12,7 C 21,9 C
01.08.2012 21:51 21,7 C 57 % 1015,0 hPa 0,0 l/m 2,9 km/h (1 Bft) O-SO 112 12,8 C 21,7 C
01.08.2012 21:56 21,6 C 57 % 1014,9 hPa 0,0 l/m 2,9 km/h (1 Bft) O 90 12,7 C 21,6 C
01.08.2012 22:01 21,4 C 58 % 1015,0 hPa 0,0 l/m 2,5 km/h (1 Bft) O-SO 112 12,8 C 21,4 C
01.08.2012 22:06 21,3 C 58 % 1015,0 hPa 0,0 l/m 2,2 km/h (1 Bft) O-SO 112 12,7 C 21,3 C
01.08.2012 22:11 21,1 C 58 % 1015,0 hPa 0,0 l/m 4,3 km/h (1 Bft) SO 135 12,5 C 21,1 C
01.08.2012 22:16 21,0 C 59 % 1014,9 hPa 0,0 l/m 3,2 km/h (1 Bft) SO 135 12,7 C 21,0 C
01.08.2012 22:21 20,9 C 59 % 1014,9 hPa 0,0 l/m 2,9 km/h (1 Bft) S-SO 157 12,6 C 20,9 C
01.08.2012 22:26 20,9 C 59 % 1014,8 hPa 0,0 l/m 5,8 km/h (2 Bft) S-SO 157 12,6 C 20,9 C
01.08.2012 22:31 20,8 C 59 % 1014,8 hPa 0,0 l/m 4,0 km/h (1 Bft) O-SO 112 12,5 C 20,8 C
01.08.2012 22:36 20,7 C 60 % 1014,7 hPa 0,0 l/m 5,0 km/h (1 Bft) O-SO 112 12,7 C 20,7 C
01.08.2012 22:41 20,6 C 60 % 1014,9 hPa 0,0 l/m 3,2 km/h (1 Bft) SO 135 12,6 C 20,6 C
01.08.2012 22:46 20,4 C 60 % 1014,6 hPa 0,0 l/m 1,4 km/h (1 Bft) O 90 12,4 C 20,4 C
01.08.2012 22:51 20,3 C 61 % 1014,6 hPa 0,0 l/m 5,0 km/h (1 Bft) O-SO 112 12,5 C 20,3 C
01.08.2012 22:56 20,3 C 61 % 1014,6 hPa 0,0 l/m 10,1 km/h (2 Bft) SO 135 12,5 C 20,3 C
01.08.2012 23:01 20,1 C 61 % 1014,7 hPa 0,0 l/m 6,8 km/h (2 Bft) SO 135 12,3 C 20,1 C
01.08.2012 23:06 20,1 C 62 % 1014,6 hPa 0,0 l/m 3,6 km/h (1 Bft) O 90 12,6 C 20,1 C
01.08.2012 23:11 19,9 C 62 % 1014,7 hPa 0,0 l/m 2,2 km/h (1 Bft) SO 135 12,4 C 19,9 C
01.08.2012 23:16 19,9 C 62 % 1014,6 hPa 0,0 l/m 1,8 km/h (1 Bft) O 90 12,4 C 19,9 C
01.08.2012 23:21 19,8 C 63 % 1014,5 hPa 0,0 l/m 5,4 km/h (1 Bft) SO 135 12,5 C 19,8 C
01.08.2012 23:26 19,6 C 63 % 1014,6 hPa 0,0 l/m 7,2 km/h (2 Bft) O 90 12,4 C 19,6 C
01.08.2012 23:31 19,5 C 63 % 1014,6 hPa 0,0 l/m 5,8 km/h (2 Bft) SO 135 12,3 C 19,5 C
01.08.2012 23:36 19,4 C 63 % 1014,6 hPa 0,0 l/m 7,6 km/h (2 Bft) O-NO 67 12,2 C 19,4 C
01.08.2012 23:41 19,3 C 64 % 1014,5 hPa 0,0 l/m 3,6 km/h (1 Bft) O 90 12,3 C 19,3 C
01.08.2012 23:46 19,2 C 64 % 1014,6 hPa 0,0 l/m 6,5 km/h (2 Bft) O-SO 112 12,2 C 19,2 C
01.08.2012 23:51 19,2 C 64 % 1014,7 hPa 0,0 l/m 6,1 km/h (2 Bft) O 90 12,2 C 19,2 C
01.08.2012 23:56 19,1 C 65 % 1014,6 hPa 0,0 l/m 6,1 km/h (2 Bft) SO 135 12,4 C 19,1 C
_ Min-Zeit 04:56 16:31 23:21 - 00:16 - - 04:51 04:56
Minimum _ 14,9 C 37 % 1014,5 hPa - 0,0 km/h (0 Bft) - - 10,6 C 14,9 C
_ Max-Zeit 16:31 06:21 00:31 00:01 16:41 - - 15:21 16:31
Maximum _ 29,7 C 78 % 1019,7 hPa 0,0 l/m 14,8 km/h
SW (3 Bft)
- - 13,9 C 29,7 C
Durchschnitt _ 21,6 C 58 % 1017,6 hPa #0,0 l/m 4,5 km/h (1 Bft) SO - 12,3 C 21,6 C
(c) by David Heller